SCP
2 3 3 4 3 2 2 1 1 1 1 1 1 1 1 1 0 1 0 0 1 0
3 2 2 2 1 1 1 0 0 0 0 0 0 0 0 0 1 0 0 1 1 0
1 1 1 1 0 0 0 0 0 0 0 0 0 0 0 0 0 0 0 0 0 0
0 0 0 0 0 0 0 0 0 0 0 0 0 0 0 0 0 0 0 0 0 0
0 0 0 0 0 0 0 0 0 0 0 0 0 0 0 0 0 0 0 0 0 0
0 0 0 0 0 0 0 0 0 0 0 0 0 0 0 0 0 0 0 0 0 0
0 0 0 0 0 0 0 0 0 0 0 0 0 0 0 0 0 0 0 0 0 0
0 0 0 0 0 0 0 0 0 0 0 0 0 0 0 0 0 0 0 0 0 0
0 0 0 0 0 0 0 0 0 0 0 0 0 0 0 0 0 0 0 0 0 0
0 0 0 0 0 0 0 0 0 0 0 0 0 0 0 0 0 0 0 0 0 0
0 0 0 0 0 0 0 0 0 0 0 0 0 0 0 0 0 0 0 0 0 0
0 0 0 0 0 0 0 0 0 0 0 0 0 0 0 0 0 0 0 0 0 0
0 0 0 0 0 0 0 0 0 0 0 0 0 0 0 0 0 0 0 0 0 0
0 0 0 0 0 0 0 0 0 0 0 0 0 0 0 0 0 0 0 0 0 0
Wind_Speed_500mb
29 24 22 21 24 18 13 16 21 13 9 16 11 10 17 16 20 20 25 28 33 37
37 33 26 23 16 18 11 6 16 19 20 17 16 17 22 18 22 30 34 33 35 39
31 29 24 19 14 9 9 12 8 9 11 12 17 18 26 23 21 29 34 37 39 45
35 33 26 19 12 9 7 4 7 10 11 13 17 22 32 36 36 35 39 44 46 50
31 25 19 12 8 6 3 5 10 15 18 20 21 26 30 35 37 40 44 49 50 51
22 15 9 5 2 4 10 13 14 19 22 27 29 29 30 36 39 40 43 45 48 51
19 14 10 9 11 16 15 20 22 25 28 25 25 30 31 29 41 49 48 47 48 49
18 12 10 12 14 16 18 22 25 24 21 23 27 33 43 54 59 48 43 43 43 43
19 16 19 19 17 20 23 21 20 20 21 27 25 39 42 35 39 40 39 41 43 46
18 17 19 19 20 21 21 18 13 16 21 25 26 36 42 38 39 38 37 40 43 46
23 23 22 21 21 22 20 19 18 17 20 24 30 39 39 33 33 34 37 40 43 45
27 23 22 22 23 24 23 24 25 15 15 23 25 29 32 35 40 38 40 44 40 39
24 22 21 22 22 23 24 24 23 21 17 18 19 22 27 39 44 45 46 46 44 40
21 21 20 20 21 22 24 23 21 18 15 16 19 22 25 35 42 43 46 46 46 55
Wind_Direction_500mb
160 158 161 147 186 172 157 208 231 237 243 247 271 277 267 260 280 264 272 277 277 281
149 152 157 166 166 175 184 244 232 230 235 247 259 267 267 277 273 277 280 284 284 292
137 141 141 151 166 179 213 231 259 276 282 286 287 292 286 289 285 279 284 289 284 280
122 124 127 128 128 131 142 210 257 267 282 298 303 299 294 296 298 295 288 284 288 287
129 130 136 139 142 147 224 276 301 297 301 308 305 299 296 296 293 293 292 292 291 290
121 118 109 96 11 306 305 295 304 299 308 304 303 304 303 299 299 296 293 293 292 292
100 89 60 21 351 327 327 321 314 318 322 323 315 315 305 285 289 297 298 296 296 294
80 60 23 356 347 329 323 324 326 338 342 330 327 291 287 290 298 304 304 300 300 300
56 41 13 13 2 349 349 348 352 342 331 328 318 291 295 305 313 316 309 307 303 302
48 28 17 14 2 358 358 344 344 339 337 328 323 314 321 325 327 323 313 309 307 306
39 28 23 17 9 8 358 349 346 340 338 323 324 322 332 338 342 339 336 327 320 313
41 35 28 22 12 4 2 348 326 322 328 325 331 340 343 345 349 346 345 348 337 331
47 36 30 29 23 17 8 1 2 3 352 337 331 347 353 355 351 354 349 351 346 332
52 35 32 27 16 4 2 3 6 11 18 357 353 2 3 1 1 1 352 350 340 337
Wind_Speed_850mb
29 24 22 21 24 18 13 16 21 13 9 16 11 10 17 16 20 20 25 28 33 37
37 33 26 23 16 18 11 6 16 19 20 17 16 17 22 18 22 30 34 33 35 39
31 29 24 19 14 9 9 12 8 9 11 12 17 18 26 23 21 29 34 37 39 45
35 33 26 19 12 9 7 4 7 10 11 13 17 22 32 36 36 35 39 44 46 50
31 25 19 12 8 6 3 5 10 15 18 20 21 26 30 35 37 40 44 49 50 51
22 15 9 5 2 4 10 13 14 19 22 27 29 29 30 36 39 40 43 45 48 51
19 14 10 9 11 16 15 20 22 25 28 25 25 30 31 29 41 49 48 47 48 49
18 12 10 12 14 16 18 22 25 24 21 23 27 33 43 54 59 48 43 43 43 43
19 16 19 19 17 20 23 21 20 20 21 27 25 39 42 35 39 40 39 41 43 46
18 17 19 19 20 21 21 18 13 16 21 25 26 36 42 38 39 38 37 40 43 46
23 23 22 21 21 22 20 19 18 17 20 24 30 39 39 33 33 34 37 40 43 45
27 23 22 22 23 24 23 24 25 15 15 23 25 29 32 35 40 38 40 44 40 39
24 22 21 22 22 23 24 24 23 21 17 18 19 22 27 39 44 45 46 46 44 40
21 21 20 20 21 22 24 23 21 18 15 16 19 22 25 35 42 43 46 46 46 55
Wind_Direction_850mb
160 158 161 147 186 172 157 208 231 237 243 247 271 277 267 260 280 264 272 277 277 281
149 152 157 166 166 175 184 244 232 230 235 247 259 267 267 277 273 277 280 284 284 292
137 141 141 151 166 179 213 231 259 276 282 286 287 292 286 289 285 279 284 289 284 280
122 124 127 128 128 131 142 210 257 267 282 298 303 299 294 296 298 295 288 284 288 287
129 130 136 139 142 147 224 276 301 297 301 308 305 299 296 296 293 293 292 292 291 290
121 118 109 96 11 306 305 295 304 299 308 304 303 304 303 299 299 296 293 293 292 292
100 89 60 21 351 327 327 321 314 318 322 323 315 315 305 285 289 297 298 296 296 294
80 60 23 356 347 329 323 324 326 338 342 330 327 291 287 290 298 304 304 300 300 300
56 41 13 13 2 349 349 348 352 342 331 328 318 291 295 305 313 316 309 307 303 302
48 28 17 14 2 358 358 344 344 339 337 328 323 314 321 325 327 323 313 309 307 306
39 28 23 17 9 8 358 349 346 340 338 323 324 322 332 338 342 339 336 327 320 313
41 35 28 22 12 4 2 348 326 322 328 325 331 340 343 345 349 346 345 348 337 331
47 36 30 29 23 17 8 1 2 3 352 337 331 347 353 355 351 354 349 351 346 332
52 35 32 27 16 4 2 3 6 11 18 357 353 2 3 1 1 1 352 350 340 337